Weather Roundup
Issued by NWS

Home | Current Version | Previous Version | Text Only | Print | Product List | Glossary On
Versions: 1 2 3 4 5 6 7 8 9 10 11 12 13 14 15 16 17 18 19 20 21 22 23 24 25 26 27 28 29 30 31 32 33 34 35 36 37 38 39 40 41 42 43 44 45 46 47 48 49 50
106
NZUS93 KARX 212310
HRRWXR

CURRENT HOURLY OBSERVATIONS ACROSS
MUCH OF THE UPPER MISSISSIPPI VALLEY
NATIONAL WEATHER SERVICE LA CROSSE WI
500 PM CST SAT JAN 21 2017


...SOUTHEAST MINNESOTA...


CITY           SKY/WX    TMP DP  RH WIND       PRES   REMARKS
ROCHESTER      FOG       34  34 100 S7        29.44S VSB 1/4 WCI  28
ROCHESTER/MAYO CLOUDY    37  37 100 CALM      29.45R
WINONA         CLOUDY    37  37 100 S3        29.46S FOG
AUSTIN         FOG       36  34  93 S5        29.45R VSB 1/4 WCI  32
ALBERT LEA     FOG       37  37 100 CALM      29.44R VSB<1/4
DODGE CENTER   FOG       34  34 100 CALM      29.44R VSB<1/4
PRESTON        FOG       35  35  97 SW6       29.45R VSB<1/4 WCI  30
OWATONNA       FOG       36  36 100 CALM      29.44R VSB 1/4
FARIBAULT      NOT AVBL
$$

...ELSEWHERE IN MINNESOTA...


CITY           SKY/WX    TMP DP  RH WIND       PRES   REMARKS
MINNEAPOLIS    DRIZZLE   38  35  89 CALM      29.45S FOG
INTNL FALLS    CLOUDY    35  33  92 E3        29.51R
DULUTH         DRZL/FOG  34  34 100 E13       29.46S VSB 1   WCI  25
RED WING       FOG       37  36  93 CALM      29.45R VSB 1/4
REDWOOD FALLS  FOG       36  35  96 N3        29.43R VSB<1/4
MANKATO        FOG       36  35  96 CALM      29.45R VSB 1/4
WORTHINGTON    CLOUDY    31  31 100 W13       29.45R WCI  21
FAIRMONT       FOG       37  37 100 SW7       29.45R VSB 1/4 WCI  32
$$

...SOUTHWEST WISCONSIN...


CITY           SKY/WX    TMP DP  RH WIND       PRES   REMARKS
LA CROSSE      FOG       42  39  89 S7        29.46R VSB 1/4
PRAIRIE DU CHI CLOUDY    42  41  97 CALM      29.49R FOG
BOSCOBEL       CLOUDY    44  42  93 SW6       29.49R
LONE ROCK      FOG       40  39  97 CALM      29.49R VSB 1/2
PLATTEVILLE    CLOUDY    42  42 100 SW13      29.50R
FORT MC COY    CLOUDY    38  38  99 S3        29.47R
CAMP DOUGLAS   FOG       39  37  93 CALM      29.47R VSB 1
MAUSTON-NEW LI FOG       39  39 100 CALM      29.47R VSB 1/4
VIROQUA        CLOUDY    39  39 100 S8        29.46R VSB<1/4 WCI  33
WIS DELLS      CLOUDY    40  40  99 SW6       29.48R FOG
$$

...ELSEWHERE IN WISCONSIN...


CITY           SKY/WX    TMP DP  RH WIND       PRES   REMARKS
MILWAUKEE      PTCLDY    51  42  71 SW7       29.48R
MADISON        CLOUDY    43  42  97 W3        29.49R FOG
GREEN BAY      FOG       36  36 100 NW3       29.47R VSB 1/2
EAU CLAIRE     FOG       36  32  85 CALM      29.45R VSB 1/4
BLACK RVR FLS  CLOUDY    41  41 100 S3        29.45R FOG
MEDFORD        FOG       35  34  99 CALM      29.44R VSB 1/4
WAUSAU         FOG       35  35 100 SE3       29.45R VSB 1/2
WIS RAPIDS     FOG       37  37 100 CALM      29.48R VSB 1/4
MARSHFIELD     FOG       35  35 100 S3        29.44R VSB<1/4
RICE LAKE      DRZL/FOG  36  36  99 CALM      29.46R VSB 1/4
$$

...NORTHEAST IOWA...


CITY           SKY/WX    TMP DP  RH WIND       PRES   REMARKS
WATERLOO       CLOUDY    42  39  89 W6        29.48R
DUBUQUE        CLOUDY    42  41  96 SW9       29.50R FOG
DECORAH        FOG       39  37  93 S5        29.45R VSB<1/4
MASON CITY     FOG       38  37  97 SW7       29.46R VSB 1   WCI  33
CHARLES CITY   FOG       37  37 100 SW7       29.46R VSB<1/4 WCI  32
OELWEIN        FOG       39  39 100 SW8       29.48R VSB<1/4 WCI  34
$$

...ELSEWHERE IN IOWA...


CITY           SKY/WX    TMP DP  RH WIND       PRES   REMARKS
DES MOINES     MOCLDY    43  38  82 SW9       29.49R
IOWA CITY      CLOUDY    45  42  89 SW6       29.53R
FORT DODGE     CLOUDY    39  36  87 W5        29.48R
MARSHALLTOWN   CLOUDY    43  41  93 SW9       29.47R
CEDAR RAPIDS   CLOUDY    42  41  96 SW9       29.50R FOG
$$

...NORTHERN ILLINOIS...


CITY           SKY/WX    TMP DP  RH WIND       PRES   REMARKS
CHICAGO-OHARE  PTCLDY    54  43  66 SW10      29.50R
CHICAGO-MIDWAY PTCLDY    56  42  59 SW9       29.51R
MOLINE         CLOUDY    46  42  86 W12       29.52R
ROCKFORD       MOCLDY    45  42  89 W8        29.52R FOG
PEORIA         CLEAR     54  43  66 W7        29.52R
$$

NOTE: "FAIR" INDICATES FEW OR NO CLOUDS BELOW 12,000 FEET WITH NO
SIGNIFICANT WEATHER AND/OR OBSTRUCTIONS TO VISIBILITY. WIND
SPEEDS ARE IN MILES-PER-HOUR.




USA.gov is the U.S. government's official web portal to all federal, state and local government web resources and services.